, CA

(GMT )
Point Mugu

Weather History for KNTD - April, 2013

Change the Weather History Date:

Tuesday, April 30, 2013

  Actual Average Record
Temperature  
Mean Temperature 62 °F -  
Max Temperature 68 °F 63 °F 93 °F (2014)
Min Temperature 58 °F 47 °F 33 °F (2003)
Degree Days  
Heating Degree Days 2    
Growing Degree Days 12 (Base 50)    
Moisture  
Dew Point 55 °F    
Average Humidity 80    
Maximum Humidity 90    
Minimum Humidity 68    
Precipitation  
Precipitation 0.00 in - - ()
Sea Level Pressure  
Sea Level Pressure 29.85 in    
Wind  
Wind Speed 8 mph (South)    
Max Wind Speed 14 mph    
Max Gust Speed -    
Visibility 5 miles    
Events      
Averages and records for this station are not official NWS values.
T = Trace of Precipitation, MM = Missing Value Source: NWS Daily Summary

Daily Weather History Graph

Daily Weather History Graph

Search for Another Location

Airport or City:

Trip Planner

Search our weather history database for the weather conditions in past years. The results will help you decide how hot, cold, wet, or windy it might be!

Date:

Astronomy

Apr. 30, 2013 Rise Set
Actual Time 6:07 AM PDT 7:39 PM PDT
Civil Twilight 5:41 AM PDT 8:06 PM PDT
Nautical Twilight 5:09 AM PDT 8:38 PM PDT
Astronomical Twilight 4:35 AM PDT 9:12 PM PDT
Moon 12:04 AM PDT (4/30) 10:44 AM PDT (4/30)
Length of Visible Light 14h 25m
Length of Day
13h 32m
Waning Gibbous, 69% of the Moon is Illuminated
Apr 30
Waning Gibbous
May 2
Last Quarter
May 9
New
May 17
First Quarter
May 24
Full

Hourly Weather History & Observations

Time (PDT) Temp. Dew Point Humidity Pressure Visibility Wind Dir Wind Speed Gust Speed Precip Events Conditions
12:54 AM - - N/A% - - South 5.8 mph - N/A   Overcast
1:37 AM - - N/A% - - ESE 9.2 mph - N/A   Overcast
1:54 AM 59.0 °F 54.9 °F 86% 29.84 in 4.0 mi SE 11.5 mph - N/A   Overcast
2:54 AM 59.0 °F 54.1 °F 84% 29.84 in 3.0 mi SSE 5.8 mph - N/A   Overcast
3:54 AM 58.5 °F 54.1 °F 86% 29.82 in 3.0 mi SSE 8.1 mph - N/A   Overcast
4:54 AM 58.5 °F 54.1 °F 86% 29.82 in 3.0 mi SSE 8.1 mph - N/A   Overcast
5:01 AM 59.0 °F 53.6 °F 82% 29.83 in 3.0 mi SSE 6.9 mph - N/A   Overcast
5:54 AM 58.8 °F 54.1 °F 84% 29.83 in 4.0 mi SSE 5.8 mph - N/A   Overcast
6:54 AM 59.5 °F 53.4 °F 80% 29.86 in 5.0 mi SSE 6.9 mph - N/A   Haze
7:54 AM 59.9 °F 53.1 °F 78% 29.86 in 5.0 mi SE 9.2 mph - N/A   Haze
8:54 AM 61.2 °F 54.1 °F 78% 29.86 in 5.0 mi SE 11.5 mph - N/A   Haze
9:54 AM 62.6 °F 54.3 °F 74% 29.86 in 6.0 mi SSE 11.5 mph - N/A   Haze
10:54 AM 64.2 °F 55.6 °F 73% 29.87 in 6.0 mi South 11.5 mph - N/A   Haze
11:54 AM 64.0 °F 55.9 °F 75% 29.86 in 6.0 mi South 11.5 mph - N/A   Haze
12:54 PM 64.8 °F 56.1 °F 74% 29.86 in 6.0 mi South 11.5 mph - N/A   Haze
1:54 PM 67.6 °F 56.8 °F 68% 29.86 in 6.0 mi South 12.7 mph - N/A   Haze
2:54 PM 66.7 °F 56.1 °F 69% 29.86 in 6.0 mi South 13.8 mph - N/A   Haze
3:54 PM 63.5 °F 56.1 °F 77% 29.86 in 6.0 mi WSW 9.2 mph - N/A   Haze
4:54 PM 63.5 °F 56.1 °F 77% 29.84 in 6.0 mi West 8.1 mph - N/A   Haze
5:54 PM 61.0 °F 56.1 °F 84% 29.84 in 6.0 mi WSW 5.8 mph - N/A   Haze
6:54 PM 59.2 °F 56.1 °F 90% 29.84 in 6.0 mi West 5.8 mph - N/A   Haze
7:54 PM 59.2 °F 53.8 °F 82% 29.84 in 6.0 mi West 5.8 mph - N/A   Haze
8:54 PM 59.7 °F 53.8 °F 81% 29.86 in 6.0 mi Calm Calm - N/A   Haze
9:54 PM 59.7 °F 53.8 °F 81% 29.86 in 6.0 mi Calm Calm - N/A   Haze
10:54 PM 59.9 °F 53.8 °F 80% 29.86 in 6.0 mi Calm Calm - N/A   Haze
11:54 PM - - N/A% - - Calm Calm - N/A   Haze